GW5072 Weather Reports


time (UTC)temp
C
wind
direction
speed
KPH
gust
KPH
rain 1hr
cm
rain 24hr
cm
rain mn
cm
humidity
%
barometer
mb
20260905154524 28 185 0.0 0.0 0.00 0.30 0.03 82 1015.0
20260905154007 28 185 0.0 0.0 0.00 0.30 0.03 83 1015.0
20260905153516 28 185 0.0 0.0 0.00 0.30 0.03 86 1015.0
20260905153035 28 163 0.0 0.0 0.00 0.30 0.03 87 1015.1
20260905152507 27 159 0.0 0.0 0.00 0.30 0.03 89 1015.0
20260905152014 27 158 0.0 0.0 0.00 0.30 0.03 90 1015.0
20260905151521 27 159 0.0 0.0 0.00 0.30 0.03 90 1015.0
20260905151008 27 159 0.0 0.0 0.00 0.30 0.03 92 1015.1
20260905150513 26 158 0.0 0.0 0.00 0.30 0.03 93 1015.0
20260905150018 26 160 0.0 0.0 0.00 0.30 0.03 94 1015.0
20260905145517 26 160 0.0 0.0 0.00 0.30 0.03 96 1014.9
20260905145012 26 158 0.0 0.0 0.00 0.30 0.03 97 1014.8
20260905144519 26 158 0.0 0.0 0.00 0.30 0.03 97 1014.8
20260905144014 26 158 0.0 0.0 0.00 0.30 0.03 97 1015.0
20260905143510 26 157 0.0 0.0 0.00 0.30 0.03 97 1014.8
20260905143042 26 107 0.0 0.0 0.00 0.30 0.03 98 1014.8
20260905142513 26 107 0.0 0.0 0.00 0.30 0.03 97 1014.7
20260905142012 25 107 0.0 0.0 0.00 0.30 0.03 97 1014.8
20260905141530 25 107 0.0 0.0 0.00 0.30 0.03 97 1014.9
20260905141015 25 107 0.0 0.0 0.00 0.30 0.03 97 1014.9
20260905140511 25 107 0.0 0.0 0.00 0.30 0.03 97 1014.9
20260905140031 25 107 0.0 0.0 0.03 0.30 0.03 97 1014.9
20260905135512 25 107 0.0 0.0 0.03 0.30 0.03 98 1014.8
20260905135017 25 107 0.0 0.0 0.03 0.30 0.03 98 1014.8
20260905134529 25 107 0.0 0.0 0.03 0.30 0.03 97 1014.7
20260905134010 25 107 0.0 0.0 0.03 0.30 0.03 98 1014.7
20260905133517 25 107 0.0 0.0 0.03 0.30 0.03 98 1014.7
20260905133026 24 107 0.0 0.0 0.03 0.30 0.03 98 1014.6
20260905132507 24 107 0.0 0.0 0.03 0.30 0.03 98 1014.7
20260905132017 23 107 0.0 0.0 0.03 0.30 0.03 97 1014.8
20260905131535 23 107 0.0 0.0 0.03 0.30 0.03 97 1014.7
20260905131016 23 107 0.0 0.0 0.03 0.30 0.03 97 1014.7
20260905130516 23 107 0.0 0.0 0.03 0.30 0.03 97 1014.6
20260905130019 23 96 0.0 0.0 0.00 0.28 0.00 97 1014.5
20260905125517 23 96 0.0 0.0 0.00 0.28 0.00 97 1014.5
20260905125014 22 96 0.0 0.0 0.00 0.28 0.00 97 1014.4
20260905124536 22 96 0.0 0.0 0.00 0.28 0.00 97 1014.4
20260905124019 22 96 0.0 0.0 0.00 0.28 0.00 97 1014.4
20260905123513 22 96 0.0 0.0 0.00 0.28 0.00 97 1014.3
20260905123032 22 96 0.0 0.0 0.00 0.28 0.00 97 1014.1
20260905122518 22 96 0.0 0.0 0.00 0.28 0.00 97 1014.1
20260905122010 22 96 0.0 0.0 0.00 0.28 0.00 97 1014.0
20260905121529 22 96 0.0 0.0 0.00 0.28 0.00 97 1013.9
20260905121018 22 96 0.0 0.0 0.00 0.28 0.00 97 1014.0
20260905120518 22 96 0.0 0.0 0.00 0.28 0.00 97 1013.9
20260905120029 22 96 0.0 0.0 0.00 0.28 0.00 97 1013.9
20260905115512 22 96 0.0 0.0 0.00 0.28 0.00 97 1013.8
20260905115018 22 96 0.0 0.0 0.00 0.28 0.00 97 1013.8
20260905114537 22 96 0.0 0.0 0.00 0.28 0.00 97 1013.8
20260905114010 22 96 0.0 0.0 0.00 0.28 0.00 96 1013.8
20260905113521 22 96 0.0 0.0 0.00 0.28 0.00 97 1013.8
20260905113035 22 96 0.0 0.0 0.00 0.28 0.00 97 1013.7
20260905112515 22 96 0.0 0.0 0.00 0.28 0.00 96 1013.7
20260905112014 22 96 0.0 0.0 0.00 0.28 0.00 96 1013.6
20260905111525 22 96 0.0 0.0 0.00 0.28 0.00 96 1013.6
20260905111015 22 96 0.0 0.0 0.00 0.28 0.00 96 1013.5
20260905110513 22 96 0.0 0.0 0.00 0.28 0.00 97 1013.5
20260905110023 22 96 0.0 0.0 0.00 0.28 0.00 97 1013.4
20260905105506 22 96 0.0 0.0 0.00 0.28 0.00 96 1013.3
20260905105004 22 96 0.0 0.0 0.00 0.28 0.00 96 1013.3
20260905104521 22 96 0.0 0.0 0.00 0.28 0.00 96 1013.3
20260905104003 22 96 0.0 0.0 0.00 0.28 0.00 96 1013.2
20260905103513 22 96 0.0 0.0 0.00 0.28 0.00 96 1013.2
20260905103023 22 96 0.0 0.0 0.00 0.28 0.00 96 1013.3
20260905102503 23 96 0.0 0.0 0.00 0.30 0.00 96 1013.3
20260905102016 23 96 0.0 0.0 0.00 0.30 0.00 96 1013.3
20260905101515 23 96 0.0 0.0 0.00 0.30 0.00 96 1013.2
20260905101013 23 96 0.0 0.0 0.00 0.30 0.00 96 1013.2
20260905100513 23 96 0.0 0.0 0.00 0.30 0.00 96 1013.2
20260905100020 23 96 0.0 0.0 0.00 0.30 0.00 96 1013.2
20260905095511 23 96 0.0 0.0 0.00 0.30 0.00 96 1013.2
20260905095007 23 96 0.0 0.0 0.00 0.30 0.00 96 1013.2
20260905094511 23 96 0.0 0.0 0.00 0.30 0.00 96 1013.2
20260905094013 23 96 0.0 0.0 0.00 0.30 0.00 96 1013.2
20260905093509 23 96 0.0 0.0 0.00 0.30 0.00 96 1013.2
20260905093035 23 96 0.0 0.0 0.00 0.30 0.00 96 1013.2
20260905092510 23 96 0.0 0.0 0.00 0.30 0.00 96 1013.2
20260905092006 23 96 0.0 0.0 0.00 0.30 0.00 96 1013.2
20260905091527 23 96 0.0 0.0 0.00 0.30 0.00 96 1013.3
20260905091009 23 96 0.0 0.0 0.00 0.30 0.00 96 1013.2
20260905090502 23 96 0.0 0.0 0.00 0.30 0.00 96 1013.1
20260905090023 23 96 0.0 0.0 0.00 0.30 0.00 96 1013.2
20260905085508 23 96 0.0 0.0 0.00 0.30 0.00 96 1013.2
20260905085019 23 96 0.0 0.0 0.00 0.30 0.00 96 1013.2
20260905084517 23 96 0.0 0.0 0.00 0.30 0.00 96 1013.1
20260905084003 23 96 0.0 0.0 0.00 0.30 0.00 96 1013.1
20260905083512 23 96 0.0 0.0 0.00 0.30 0.00 96 1013.1
20260905083015 23 96 0.0 0.0 0.00 0.30 0.00 96 1013.2
20260905082517 23 96 0.0 0.0 0.00 0.30 0.00 96 1013.1
20260905082012 23 96 0.0 0.0 0.00 0.30 0.00 96 1013.1
20260905081512 23 96 0.0 0.0 0.00 0.30 0.00 96 1013.0
20260905081016 23 96 0.0 0.0 0.00 0.30 0.00 96 1013.1
20260905080511 23 96 0.0 0.0 0.00 0.30 0.00 96 1013.0
20260905080009 23 96 0.0 0.0 0.00 0.30 0.00 96 1013.1
20260905075514 23 96 0.0 0.0 0.00 0.30 0.00 96 1013.1
20260905075007 23 96 0.0 0.0 0.00 0.30 0.00 96 1013.2
20260905074531 23 96 0.0 0.0 0.00 0.30 0.00 96 1013.2
20260905074018 23 96 0.0 0.0 0.00 0.30 0.00 96 1013.3
20260905073507 23 96 0.0 0.0 0.00 0.30 0.00 96 1013.3
20260905073028 23 96 0.0 0.0 0.00 0.30 0.00 96 1013.4
20260905072510 23 96 0.0 0.0 0.00 0.30 0.00 96 1013.4
20260905072006 23 96 0.0 0.0 0.00 0.30 0.00 95 1013.5
20260905071524 23 96 0.0 0.0 0.00 0.30 0.00 95 1013.5
20260905071009 23 96 0.0 0.0 0.00 0.30 0.00 95 1013.6
20260905070516 23 96 0.0 0.0 0.00 0.30 0.00 95 1013.7
20260905070033 23 96 0.0 0.0 0.00 0.30 0.00 95 1013.7
20260905065505 23 96 0.0 0.0 0.00 0.30 0.00 95 1013.7
20260905065016 23 96 0.0 0.0 0.00 0.30 0.00 95 1013.7
20260905064531 23 96 0.0 0.0 0.00 0.30 0.00 95 1013.8
20260905064004 23 96 0.0 0.0 0.00 0.30 0.00 96 1013.8
20260905063515 23 96 0.0 0.0 0.00 0.30 0.00 95 1013.8
20260905063016 23 96 0.0 0.0 0.00 0.30 0.00 96 1013.7
20260905062520 23 96 0.0 0.0 0.00 0.30 0.00 95 1013.7
20260905062012 23 96 0.0 0.0 0.00 0.30 0.00 95 1013.8
20260905061514 23 96 0.0 0.0 0.00 0.30 0.00 95 1013.8
20260905061017 23 96 0.0 0.0 0.00 0.30 0.00 95 1013.8
20260905060511 23 96 0.0 0.0 0.00 0.30 0.00 95 1013.8
20260905060037 23 96 0.0 0.0 0.00 0.30 0.00 95 1013.8
20260905055514 23 96 0.0 0.0 0.00 0.30 0.00 95 1013.7
20260905055008 23 96 0.0 0.0 0.00 0.30 0.00 95 1013.8
20260905054531 23 96 0.0 0.0 0.00 0.30 0.00 95 1013.8
20260905054014 23 96 0.0 0.0 0.00 0.30 0.00 95 1013.7
20260905053510 23 96 0.0 0.0 0.00 0.30 0.00 95 1013.6
20260905053034 23 96 0.0 0.0 0.00 0.30 0.00 95 1013.7
20260905052515 23 96 0.0 0.0 0.00 0.30 0.00 95 1013.8
20260905052017 23 96 0.0 0.0 0.00 0.30 0.00 94 1013.9
20260905051530 23 96 0.0 0.0 0.00 0.30 0.00 94 1013.8
20260905051009 23 96 0.0 0.0 0.00 0.30 0.00 94 1013.8
20260905050518 23 96 0.0 0.0 0.00 0.30 0.00 95 1013.9
20260905050028 24 96 0.0 0.0 0.00 0.30 0.00 95 1013.9
20260905045507 24 96 0.0 0.0 0.00 0.30 0.30 95 1013.9
20260905045016 24 96 0.0 0.0 0.00 0.30 0.30 95 1013.9
20260905044525 23 96 0.0 0.0 0.00 0.30 0.30 95 1013.9
20260905044017 23 96 0.0 0.0 0.00 0.30 0.30 95 1013.9
20260905043514 23 96 0.0 0.0 0.00 0.30 0.30 95 1013.8
20260905043020 23 96 0.0 0.0 0.00 0.30 0.30 94 1013.8
20260905042516 23 96 0.0 0.0 0.00 0.30 0.30 94 1013.8
20260905042013 24 96 0.0 0.0 0.00 0.30 0.30 94 1013.9
20260905041516 24 96 0.0 0.0 0.00 0.30 0.30 94 1013.8
20260905041017 24 96 0.0 0.0 0.00 0.30 0.30 94 1013.9
20260905040511 24 96 0.0 0.0 0.00 0.30 0.30 94 1013.9
20260905040033 24 96 0.0 0.0 0.00 0.30 0.30 94 1013.9
20260905035514 24 96 0.0 0.0 0.00 0.30 0.30 94 1014.0
20260905035012 24 96 0.0 0.0 0.00 0.30 0.30 94 1013.9
20260905034532 24 96 0.0 0.0 0.00 0.30 0.30 94 1014.0
20260905034015 24 96 0.0 0.0 0.00 0.30 0.30 94 1014.0
20260905033516 24 96 0.0 0.0 0.00 0.30 0.30 94 1014.0
20260905033034 24 96 0.0 0.0 0.00 0.30 0.30 94 1014.0
20260905032512 24 96 0.0 0.0 0.00 0.30 0.30 94 1014.0
20260905032017 25 96 0.0 0.0 0.00 0.30 0.30 94 1014.0
20260905031531 25 96 0.0 0.0 0.00 0.30 0.30 94 1014.0
20260905031010 25 96 0.0 0.0 0.00 0.30 0.30 94 1014.0
20260905030517 25 96 0.0 0.0 0.00 0.30 0.30 94 1014.1
20260905030036 25 96 0.0 0.0 0.00 0.30 0.30 93 1014.0
20260905025517 25 96 0.0 0.0 0.00 0.30 0.30 93 1014.0
20260905025020 25 96 0.0 0.0 0.00 0.30 0.30 93 1014.0
20260905024531 25 96 0.0 0.0 0.00 0.30 0.30 93 1014.0
20260905024014 25 96 0.0 0.0 0.00 0.30 0.30 93 1014.0
20260905023514 25 96 0.0 0.0 0.00 0.30 0.30 93 1013.9
20260905023023 25 96 0.0 0.0 0.00 0.30 0.30 93 1013.9
20260905022517 25 96 0.0 0.0 0.00 0.30 0.30 93 1013.9
20260905022014 25 96 0.0 0.0 0.00 0.30 0.30 93 1013.8
20260905021532 25 96 0.0 0.0 0.00 0.30 0.30 93 1013.7
20260905021015 25 96 0.0 0.0 0.00 0.30 0.30 93 1013.7
20260905020515 25 96 0.0 0.0 0.00 0.30 0.30 93 1013.6
20260905020010 25 96 0.0 0.0 0.00 0.30 0.30 93 1013.5
20260905015503 25 96 0.0 0.0 0.00 0.30 0.30 92 1013.3
20260905015007 25 96 0.0 0.0 0.00 0.30 0.30 92 1013.4
20260905014507 25 96 0.0 0.0 0.00 0.30 0.30 92 1013.3
20260905014004 25 96 0.0 0.0 0.00 0.30 0.30 92 1013.4
20260905013502 25 83 0.0 0.0 0.00 0.30 0.30 91 1013.3
20260905013010 26 82 0.0 0.0 0.00 0.30 0.30 91 1013.2
20260905012504 26 82 0.0 0.0 0.00 0.30 0.30 91 1013.1
20260905012004 26 82 0.0 0.0 0.00 0.30 0.30 90 1013.1
20260905011507 26 82 0.0 0.0 0.00 0.30 0.30 90 1013.0
20260905011006 26 82 0.0 0.0 0.00 0.30 0.30 90 1013.0
20260905010506 26 82 0.0 0.0 0.00 0.30 0.30 89 1013.0
20260905010009 26 83 0.0 0.0 0.00 0.30 0.30 89 1012.9
20260905005505 26 82 0.0 0.0 0.00 0.30 0.30 89 1012.9
20260905005003 27 82 0.0 0.0 0.00 0.30 0.30 89 1013.0
20260905004510 27 82 0.0 0.0 0.00 0.30 0.30 89 1012.9
20260905004003 27 82 0.0 0.0 0.00 0.30 0.30 88 1012.8
20260905003506 27 82 0.0 0.0 0.00 0.30 0.30 88 1012.7
20260905003012 27 82 0.0 0.0 0.00 0.30 0.30 88 1012.7
20260905002504 27 83 0.0 0.0 0.00 0.30 0.30 88 1012.7
20260905002008 27 82 0.0 0.0 0.00 0.30 0.30 87 1012.5
20260905001512 27 82 0.0 0.0 0.00 0.30 0.30 88 1012.5
20260905001004 27 82 0.0 0.0 0.00 0.30 0.30 87 1012.6
20260905000509 27 82 0.0 0.0 0.00 0.30 0.30 88 1012.5
20260905000014 27 82 0.0 0.0 0.00 0.30 0.30 88 1012.6
20260904235505 27 82 0.0 0.0 0.00 0.30 0.30 89 1012.7
20260904235003 27 82 0.0 0.0 0.00 0.30 0.30 88 1012.6
20260904234513 27 83 0.0 0.0 0.00 0.30 0.30 88 1012.6
20260904234006 27 83 0.0 0.0 0.00 0.30 0.30 88 1012.6
20260904233503 27 218 0.0 0.0 0.00 0.30 0.30 88 1012.6
20260904233011 28 218 0.0 0.0 0.00 0.30 0.30 86 1012.6
20260904232509 28 218 0.0 0.0 0.00 0.30 0.30 87 1012.6
20260904232007 28 218 0.0 0.0 0.00 0.30 0.30 86 1012.7
20260904231515 28 218 0.0 0.0 0.00 0.30 0.30 85 1012.6
20260904231007 28 218 0.0 0.0 0.00 0.30 0.30 85 1012.5
20260904230507 28 218 0.0 0.0 0.00 0.30 0.30 84 1012.4
20260904230009 29 218 0.0 0.0 0.00 0.30 0.30 82 1012.7
20260904225506 29 218 0.0 0.0 0.00 0.30 0.30 81 1012.5
20260904225006 30 218 0.0 0.0 0.00 0.30 0.30 80 1012.5
20260904224505 30 218 0.0 0.0 0.00 0.30 0.30 79 1012.6
20260904224008 30 218 0.0 0.0 0.00 0.30 0.30 78 1012.7
20260904223503 30 218 0.0 0.0 0.00 0.30 0.30 78 1012.7
20260904223023 30 218 0.0 0.0 0.00 0.30 0.30 77 1012.7
20260904222507 30 218 0.0 0.0 0.00 0.30 0.30 78 1012.9
20260904222004 30 218 0.0 0.0 0.00 0.30 0.30 76 1012.9
20260904221518 31 218 0.0 0.0 0.00 0.30 0.30 75 1012.9
20260904221004 31 218 0.0 0.0 0.00 0.30 0.30 74 1012.9
20260904220504 31 218 0.0 1.6 0.00 0.30 0.30 76 1013.0
20260904220020 31 218 0.0 1.6 0.00 0.30 0.30 75 1013.0
20260904215505 31 233 0.0 0.0 0.00 0.30 0.30 77 1012.9
20260904215009 30 242 0.0 0.0 0.00 0.30 0.30 76 1013.0
20260904214518 30 241 0.0 0.0 0.00 0.30 0.30 77 1013.0
20260904214003 30 241 0.0 0.0 0.00 0.30 0.30 80 1013.0
20260904213508 30 238 0.0 0.0 0.00 0.30 0.30 79 1013.0
20260904213024 30 238 0.0 0.0 0.00 0.30 0.30 78 1013.1
20260904212510 30 238 0.0 0.0 0.00 0.30 0.30 79 1013.1
20260904212009 30 238 0.0 0.0 0.00 0.30 0.30 79 1013.1
20260904211509 30 245 0.0 0.0 0.00 0.30 0.30 81 1013.2
20260904211014 29 94 0.0 0.0 0.00 0.30 0.30 81 1013.4
20260904210508 29 60 0.0 0.0 0.00 0.30 0.30 87 1013.3
20260904210023 28 60 0.0 0.0 0.00 0.30 0.30 87 1013.4
20260904205508 28 60 0.0 0.0 0.00 0.30 0.30 90 1013.7
20260904205006 27 86 0.0 0.0 0.00 0.30 0.30 90 1013.9
20260904204521 27 86 0.0 0.0 0.00 0.30 0.30 89 1014.0
20260904204008 27 86 0.0 0.0 0.00 0.30 0.30 89 1014.0
20260904203506 26 86 0.0 0.0 0.00 0.30 0.30 89 1014.1
20260904203023 26 86 0.0 0.0 0.00 0.30 0.30 90 1014.2
20260904202509 26 86 0.0 0.0 0.00 0.30 0.30 90 1014.2
20260904202004 26 86 0.0 0.0 0.00 0.30 0.30 91 1014.3
20260904201520 26 86 0.0 0.0 0.00 0.30 0.30 92 1014.4
20260904201007 26 86 0.0 0.0 0.00 0.30 0.30 92 1014.4
20260904200515 26 86 0.0 0.0 0.00 0.30 0.30 93 1014.3
20260904200023 26 86 0.0 0.0 0.00 0.30 0.30 93 1014.4
20260904195504 26 86 0.0 0.0 0.00 0.30 0.30 92 1014.5
20260904195013 26 86 0.0 0.0 0.00 0.30 0.30 92 1014.3
20260904194517 26 87 0.0 0.0 0.00 0.30 0.30 94 1014.3
20260904194014 25 86 0.0 0.0 0.00 0.30 0.30 94 1014.4
20260904193511 25 86 0.0 0.0 0.00 0.30 0.30 93 1014.4
20260904193016 25 86 0.0 0.0 0.00 0.30 0.30 94 1014.3
20260904192512 25 87 0.0 0.0 0.00 0.30 0.30 94 1014.4
20260904192010 25 86 0.0 0.0 0.00 0.30 0.30 93 1014.5
20260904191511 25 86 0.0 0.0 0.00 0.30 0.30 94 1014.5
20260904191013 25 86 0.0 0.0 0.00 0.30 0.30 94 1014.6
20260904190508 25 86 0.0 0.0 0.00 0.30 0.30 93 1014.6
20260904190027 25 88 0.0 0.0 0.03 0.30 0.30 94 1014.8
20260904185510 25 94 0.0 0.0 0.03 0.30 0.30 94 1014.9
20260904185007 25 94 0.0 0.0 0.05 0.30 0.30 94 1015.0
20260904184526 25 94 0.0 0.0 0.05 0.30 0.30 94 1015.0
20260904184010 25 94 0.0 0.0 0.10 0.30 0.30 94 1015.1
20260904183506 25 208 0.0 0.0 0.18 0.30 0.30 93 1015.1
20260904183029 24 211 0.0 0.0 0.28 0.30 0.30 94 1015.2
20260904182510 24 212 0.0 0.0 0.28 0.30 0.30 93 1015.4
20260904182019 24 207 0.0 0.0 0.28 0.33 0.30 93 1015.6
20260904181525 24 207 0.0 0.0 0.28 0.41 0.30 92 1015.6
20260904181011 24 207 0.0 0.0 0.28 0.43 0.30 91 1015.6
20260904180513 25 207 0.0 0.0 0.28 0.43 0.30 90 1015.6
20260904180023 25 129 0.0 0.0 0.25 0.41 0.28 90 1015.8
20260904175504 25 129 0.0 0.0 0.25 0.41 0.28 88 1016.0
20260904175012 25 270 0.0 0.0 0.23 0.38 0.25 87 1016.1
20260904174519 26 103 0.0 0.0 0.23 0.38 0.25 85 1016.1
20260904174013 27 135 0.0 0.0 0.18 0.33 0.20 83 1016.3
20260904173513 27 136 0.0 0.0 0.10 0.25 0.13 80 1016.3
20260904173016 27 217 0.0 0.0 0.00 0.15 0.03 78 1016.0
20260904172514 27 260 0.0 1.6 0.00 0.15 0.03 76 1015.8
20260904172013 28 229 0.0 1.6 0.00 0.15 0.03 76 1015.7
20260904171529 28 315 0.0 1.6 0.00 0.15 0.03 76 1015.7
20260904171013 28 231 0.0 1.6 0.00 0.15 0.03 76 1015.8
20260904170509 28 220 0.0 1.6 0.00 0.15 0.03 75 1015.8
20260904170028 28 219 0.0 1.6 0.00 0.15 0.03 74 1016.0
20260904165516 29 278 0.0 1.6 0.00 0.15 0.03 74 1016.1
20260904165008 29 223 0.0 1.6 0.00 0.15 0.03 73 1016.2
20260904164527 30 227 0.0 3.2 0.00 0.15 0.03 74 1016.1
20260904164011 31 275 0.0 3.2 0.00 0.15 0.03 72 1015.9
20260904163514 31 321 0.0 1.6 0.00 0.15 0.03 70 1015.9
20260904163032 32 223 0.0 0.0 0.00 0.15 0.03 75 1015.7
20260904162513 31 111 0.0 0.0 0.00 0.15 0.03 76 1015.6
20260904162014 31 112 0.0 0.0 0.00 0.15 0.03 77 1015.4
20260904161533 31 278 0.0 1.6 0.00 0.15 0.03 78 1015.2
20260904161013 31 86 0.0 1.6 0.00 0.15 0.03 77 1015.3
20260904160514 31 66 0.0 0.0 0.00 0.15 0.03 78 1015.1
20260904160024 30 110 0.0 0.0 0.00 0.15 0.03 81 1015.1
20260904155516 30 75 0.0 0.0 0.00 0.15 0.03 81 1015.1
20260904155016 30 113 0.0 0.0 0.00 0.15 0.03 82 1015.1